Location: Fort Frances
(48.6170°N, 93.4170°W)
Time: 22:39:48
(UTC-05:00)

Daily predictions for brighter satellites

Satellite Brightness Start Highest point End
(mag) Time Altitude Azimuth Time Altitude Azimuth Time Altitude Azimuth
EO 1 Delta rocket 4.4 21:56:33 10° SE 22:00:56 43° ENE 22:05:25 10° N
Cosmos 1408 Rocket 3.8 21:57:33 10° S 22:01:43 52° E 22:05:57 10° NNE
Cosmos 1725 Rocket 4.3 21:56:21 10° N 22:02:30 53° ENE 22:08:32 10° SSE
ERBS 2.3 21:59:20 10° NW 22:02:45 85° NE 22:06:08 10° SE
Cosmos 1802 Rocket 4.0 21:57:37 10° N 22:03:48 85° E 22:09:57 10° S
Cosmos 2221 3.7 22:04:04 10° NNW 22:08:15 44° W 22:12:25 10° SSW
CZ-3B DEB 4.4 21:59:33 10° W 22:09:51 68° NNW 22:22:56 10° ENE
Meteor 1-29 4.1 22:06:55 10° N 22:10:14 47° WNW 22:13:33 10° SW
Cosmos 1340 Rocket 4.4 22:06:58 10° SW 22:10:46 39° WNW 22:14:38 10° N
Tiangong 1 2.1 22:08:37 10° WSW 22:10:58 24° S 22:13:18 10° ESE
Cosmos 2151 4.4 22:11:18 10° SE 22:14:42 23° E 22:18:07 10° NE
Cosmos 1603 3.8 22:10:45 10° NNW 22:16:26 78° WSW 22:22:02 10° SSE
Cosmos 1814 Rocket 4.1 22:14:08 10° NNW 22:19:32 81° ENE 22:24:51 10° SSE
Cosmos 1674 3.3 22:17:10 10° SSW 22:20:51 56° WNW 22:24:34 10° N
Cosmos 371 Rocket 3.3 22:16:09 10° NNW 22:21:00 80° ENE 22:25:49 10° SSE
Cosmos 1500 Rocket 4.5 22:18:18 10° SSE 22:22:17 33° E 22:26:18 10° NNE
Cosmos 1455 4.0 22:21:44 10° NNE 22:24:37 20° ENE 22:27:28 10° ESE
Cosmos 2227 Rocket 4.5 22:21:56 10° WSW 22:26:51 30° NW 22:31:48 10° NNE
Cosmos 841 Rocket 3.7 22:23:51 10° NNW 22:29:06 63° ENE 22:33:53 12° SE
Lacrosse 5 2.5 22:25:08 10° WNW 22:30:00 47° SW 22:34:30 12° SSE
Cosmos 2016 Rocket 4.2 22:23:54 10° NNW 22:30:11 75° W 22:36:20 10° S
ARGOS 3.5 22:25:14 10° S 22:30:38 69° WSW 22:36:03 10° NNW
Cosmos 1763 Rocket 3.5 22:25:35 10° NNW 22:30:44 80° ENE 22:35:29 12° SSE
Cosmos 1943 3.3 22:25:51 10° NNW 22:31:31 75° ENE 22:36:46 12° SE
SPOT 5 3.2 22:26:56 10° S 22:31:49 71° WSW 22:36:59 10° NNW
SL-16 R/B 4.1 22:28:18 10° NW 22:32:40 23° WSW 22:37:01 10° SSW
CARTOSAT-1 4.2 22:29:27 12° SE 22:33:14 43° ENE 22:37:20 10° N
Abrixas rocket 2.9 22:33:21 10° W 22:36:23 37° SSW 22:38:41 15° SE
Cosmos 1766 Rocket 4.0 22:34:53 10° SSW 22:39:10 62° WNW 22:43:31 10° N
SPOT 1/Viking Rocket 3.6 22:35:18 10° SSE 22:40:27 80° WSW 22:45:38 10° NNW
Cosmos 1328 Rocket 3.6 22:36:17 10° NNW 22:40:39 78° W 22:44:56 10° S
Cosmos 1515 Rocket 3.5 22:42:17 10° N 22:46:40 89° ENE 22:50:33 13° S
Cosmos 1151 Rocket 3.1 22:42:30 10° N 22:46:55 71° E 22:50:35 14° SSE
USA 245 4.4 22:45:16 10° SSW 22:48:38 41° W 22:52:52 10° NNW
IGS 5A 3.6 22:48:26 15° SSE 22:51:44 61° ENE 22:55:52 10° N
Landsat 7 3.8 22:47:28 13° SSE 22:51:45 89° WSW 22:56:34 10° NNW
H-2A R/B 2.4 22:51:01 16° SE 22:54:20 55° ENE 22:58:28 10° N
Cosmos 2233 Rocket 4.0 22:48:17 10° N 22:54:33 79° E 23:00:00 14° SSE
Cosmos 2228 Rocket 3.6 22:50:37 10° NNW 22:55:10 62° W 22:59:34 11° S
Cosmos 1743 Rocket 3.5 22:50:53 10° S 22:55:13 89° W 22:59:35 10° N
SME Rocket 4.4 22:52:50 13° ESE 22:55:56 32° ENE 23:00:25 10° N
Cosmos 1867 4.4 22:54:18 10° WSW 22:59:38 54° NW 23:05:01 10° NNE
Cosmos 1703 3.7 22:57:48 17° SSE 23:00:35 46° E 23:04:26 10° NNE
USA 234 3.3 22:54:23 10° ENE 23:00:53 61° SE 23:07:20 10° SW
Terra 1.8 23:02:53 16° SSE 23:06:41 90° SSW 23:11:30 10° NNW
CZ-4 R/B 4.4 23:03:24 10° NNE 23:08:01 40° E 23:11:04 18° SSE
Meteor 2-12 Rocket 4.4 23:03:00 10° N 23:09:07 86° E 23:14:05 16° S
Meteor 1-11 4.3 23:06:14 10° S 23:12:03 85° E 23:17:54 10° NNE
Cosmos 1503 Rocket 4.2 23:12:35 15° S 23:16:43 52° ESE 23:21:44 10° NNE
Cosmos 1626 2.0 23:19:15 19° S 23:21:53 84° E 23:25:38 10° N
Cosmos 304 Rocket 3.8 23:17:22 10° NNW 23:22:13 84° WSW 23:25:22 21° SSE
Cosmos 2058 3.0 23:21:05 14° SSW 23:24:38 79° WNW 23:28:53 10° N
H-2A R/B 3.3 23:19:55 10° SSW 23:24:51 37° W 23:29:53 10° NNW
CZ-4B R/B 3.9 23:22:54 10° NNE 23:28:04 51° E 23:31:25 21° SSE
Cosmos 540 Rocket 3.4 23:24:52 10° NNW 23:30:03 85° WSW 23:33:24 22° SSE
Cosmos 2263 Rocket 2.1 23:29:29 10° SSW 23:35:04 88° ESE 23:40:43 10° NNE
Spot 4 3.9 23:34:13 22° SSE 23:37:22 87° WSW 23:42:17 10° NNW
Sich 1 3.6 23:36:53 25° SSE 23:38:51 41° E 23:42:54 10° NNE
ATLAS 5 CENTAUR R/B 4.2 23:36:09 10° W 23:40:24 28° NNW 23:45:04 10° NNE
COSMOS 2406 3.7 23:35:15 10° NNW 23:40:50 54° ENE 23:44:53 18° SE
PSLV R/B 3.5 23:40:57 31° SSW 23:42:01 51° W 23:44:50 10° NNW
Cosmos 2285 Rocket 4.2 23:35:52 10° NNW 23:42:09 66° WSW 23:46:33 21° S
deb Chang Zheng 4 3.6 23:39:20 10° NNE 23:43:43 88° WNW 23:46:51 19° SSW
SL-24 R/B 4.5 23:43:08 26° S 23:45:25 79° WSW 23:49:41 10° NNW
Tiangong 1 3.4 23:44:16 10° WSW 23:44:32 11° SW 23:44:32 11° SW
Cosmos 2034 Rocket 4.1 23:41:07 10° N 23:47:28 68° ENE 23:51:34 23° SSE
Cosmos 1707 Rocket 3.6 23:44:07 10° N 23:48:38 88° E 23:51:03 27° S
ALOS 2 3.8 23:48:17 19° ESE 23:50:47 33° ENE 23:54:43 10° N
DELTA 2 DEB (DPAF) 4.2 23:48:50 26° S 23:51:21 78° WSW 23:55:50 10° NNW
Cosmos 2151 4.3 23:47:48 10° SW 23:51:48 37° WNW 23:55:51 10° N
Cosmos 1891 Rocket 4.4 23:47:16 10° N 23:53:24 83° E 23:57:14 24° SSE
